Home   Weather   Mohave Valley   Past weeks
Flag for USA

Past Weather in Mohave Valley, Arizona, USA — Yesterday and Last 2 Weeks

Now
77 °F

Sunny.


Feels Like: 77 °F
Forecast: 94 / 64 °F
Wind: 5 mph from Northeast

Location: Needles Airport

Current Time: Oct 17, 2019 at 11:09:34 am

Latest Report: Oct 17, 2019 at 9:56 am


Visibility: 10 mi

Pressure: 29.64 "Hg

Humidity: 19%

Dew Point: 32 °F

Location of Mohave ValleyLocation

Past Weather in Mohave Valley — Graph

°F

Mohave Valley Temperature Yesterday

Maximum temperature yesterday: 93 °F (at 3:56 pm)
Minimum temperature yesterday: 64 °F (at 5:56 am)
Average temperature yesterday: 79 °F

High & Low Weather Summary for the Past Weeks

 TemperatureHumidityPressure
High94 °F (Oct 15, 2:56 pm)33% (Oct 15, 2:56 am)30.08 "Hg (Oct 15, 2:56 am)
Low53 °F (Oct 13, 6:56 am)5% (Oct 11, 2:56 pm)29.64 "Hg (Oct 17, 4:56 am)
Average74 °F15%29.83 "Hg
* Reported Oct 2 9:56 am — Oct 17 9:56 am, Mohave Valley. Weather by CustomWeather, © 2019

Note: Actual official high and low records may vary slightly from our data, if they occured in-between our weather recording intervals... More about our weather records

Advertising

Mohave Valley Weather History for the Previous 24 Hours

Scroll right to see more
 ConditionsComfort  
Time TempWeatherWind HumidityBarometerVisibility
9:56 am
Thu, Oct 17
77 °FSunny.5 mph19%29.64 "Hg10 mi
8:56 am75 °FSunny.3 mph19%29.65 "Hg10 mi
6:56 am66 °FSunny.6 mph24%29.64 "Hg10 mi
5:56 am66 °FClear.7 mph24%29.64 "Hg10 mi
4:56 am68 °FClear.7 mph23%29.64 "Hg10 mi
3:56 am68 °FClear.5 mph23%29.64 "Hg10 mi
2:56 am71 °FClear.No wind21%29.65 "Hg10 mi
1:56 am72 °FClear.8 mph19%29.66 "Hg10 mi
12:56 am72 °FClear.7 mph19%29.67 "Hg10 mi
11:56 pm
Wed, Oct 16
76 °FClear.6 mph17%29.67 "Hg10 mi
10:56 pm79 °FClear.No wind15%29.69 "Hg10 mi
9:56 pm79 °FClear.9 mph16%29.70 "Hg10 mi
8:56 pm80 °FClear.7 mph15%29.70 "Hg10 mi
7:56 pm81 °FClear.9 mph14%29.70 "Hg10 mi
6:56 pm84 °FClear.5 mph13%29.70 "Hg10 mi
5:56 pm89 °FSunny.3 mph12%29.71 "Hg10 mi
4:56 pm93 °FSunny.3 mph10%29.71 "Hg10 mi
3:56 pm93 °FSunny.No wind10%29.73 "Hg10 mi
2:56 pm92 °FSunny.No wind10%29.76 "Hg10 mi
1:56 pm90 °FSunny.No wind11%29.80 "Hg10 mi
12:56 pm88 °FSunny.5 mph11%29.84 "Hg10 mi
11:56 am86 °FSunny.7 mph12%29.89 "Hg10 mi
Weather by CustomWeather, © 2019

See weather overview